Weather History for Findlay, OH

Change the Weather History Date:

Friday, November 23, 2012

  Actual Average Record
Temperature  
Mean Temperature 42 °F -  
Max Temperature 54 °F 45 °F 69 °F (1999)
Min Temperature 30 °F 30 °F 12 °F (1950)
Degree Days  
Heating Degree Days 23    
Moisture  
Dew Point 33 °F    
Average Humidity 78    
Maximum Humidity 89    
Minimum Humidity 62    
Precipitation  
Precipitation 0.06 in - - ()
Sea Level Pressure  
Sea Level Pressure 29.92 in    
Wind  
Wind Speed 21 mph (WSW)    
Max Wind Speed 28 mph    
Max Gust Speed 41 mph    
Visibility 10 miles    
Events Rain    
Averages and records for this station are not official NWS values.
T = Trace of Precipitation, MM = Missing Value Source: NWS Daily Summary

Daily Weather History Graph

Daily Weather History Graph

Search for Another Location

Airport:

Trip Planner

Search our weather history database for the weather conditions in past years. The results will help you decide how hot, cold, wet, or windy it might be!

Date:

Astronomy

Nov. 23, 2012 Rise Set
Actual Time 7:32 AM EST 5:10 PM EST
Civil Twilight 7:01 AM EST 5:40 PM EST
Nautical Twilight 6:28 AM EST 6:13 PM EST
Astronomical Twilight 5:55 AM EST 6:46 PM EST
Moon 2:25 PM EST 2:48 AM EST
Length of Visible Light 10h 38m
Length of Day
9h 38m
Waxing Gibbous, 79% of the Moon is Illuminated
Nov 23
Waxing Gibbous
Nov 28
Full
Dec 6
Last Quarter
Dec 13
New
Dec 20
First Quarter

Hourly Weather History & Observations

Time (EST) Temp. Windchill Dew Point Humidity Pressure Visibility Wind Dir Wind Speed Gust Speed Precip Events Conditions
12:53 AM 54.0 °F - 41.0 °F 62% 29.86 in 10.0 mi SSW 16.1 mph - N/A   Clear
1:53 AM 54.0 °F - 41.0 °F 62% 29.84 in 10.0 mi SW 21.9 mph 28.8 mph N/A   Mostly Cloudy
2:53 AM 51.1 °F - 46.0 °F 83% 29.83 in 6.0 mi SW 16.1 mph - 0.02 in Rain Light Rain
3:53 AM 51.1 °F - 48.0 °F 89% 29.82 in 8.0 mi SW 19.6 mph 27.6 mph 0.04 in Rain Light Rain
4:05 AM 51.8 °F - 48.2 °F 88% 29.83 in 9.0 mi SW 20.7 mph 28.8 mph 0.00 in   Overcast
4:53 AM 52.0 °F - 48.9 °F 89% 29.81 in 7.0 mi SW 13.8 mph - 0.00 in   Overcast
5:44 AM 51.8 °F - 48.2 °F 88% 29.81 in 8.0 mi WSW 19.6 mph 31.1 mph N/A   Overcast
5:53 AM 52.0 °F - 48.9 °F 89% 29.80 in 8.0 mi WSW 17.3 mph 31.1 mph N/A   Mostly Cloudy
6:27 AM 48.2 °F - 42.8 °F 82% 29.82 in 10.0 mi West 20.7 mph 28.8 mph N/A   Scattered Clouds
6:53 AM 45.0 °F 36.0 °F 41.0 °F 86% 29.83 in 10.0 mi West 25.3 mph 38.0 mph N/A   Scattered Clouds
7:05 AM 44.6 °F 35.9 °F 39.2 °F 81% 29.85 in 10.0 mi WSW 23.0 mph 28.8 mph N/A   Mostly Cloudy
7:33 AM 41.0 °F 30.9 °F 37.4 °F 87% 29.86 in 10.0 mi West 24.2 mph 33.4 mph N/A   Scattered Clouds
7:53 AM 39.9 °F 30.0 °F 36.0 °F 86% 29.87 in 10.0 mi West 21.9 mph 29.9 mph N/A   Partly Cloudy
8:09 AM 39.2 °F 28.7 °F 35.6 °F 87% 29.88 in 10.0 mi WSW 23.0 mph 29.9 mph N/A   Mostly Cloudy
8:24 AM 39.2 °F 28.0 °F 33.8 °F 81% 29.88 in 10.0 mi West 26.5 mph 33.4 mph N/A   Scattered Clouds
8:53 AM 39.0 °F 28.5 °F 34.0 °F 82% 29.88 in 10.0 mi WSW 23.0 mph 31.1 mph N/A   Partly Cloudy
9:19 AM 39.2 °F 28.0 °F 33.8 °F 81% 29.89 in 10.0 mi West 26.5 mph 33.4 mph N/A   Mostly Cloudy
9:53 AM 37.9 °F 27.6 °F 32.0 °F 79% 29.89 in 10.0 mi West 20.7 mph 32.2 mph N/A   Overcast
10:53 AM 39.0 °F 29.0 °F 32.0 °F 76% 29.90 in 10.0 mi WSW 20.7 mph 29.9 mph N/A   Overcast
11:53 AM 37.9 °F 26.1 °F 30.0 °F 73% 29.89 in 10.0 mi West 27.6 mph 35.7 mph N/A   Overcast
12:53 PM 37.0 °F 25.4 °F 28.9 °F 73% 29.88 in 10.0 mi West 25.3 mph 36.8 mph N/A   Overcast
1:53 PM 35.1 °F 22.2 °F 27.0 °F 72% 29.90 in 10.0 mi West 27.6 mph 41.4 mph N/A   Overcast
2:53 PM 33.1 °F 19.6 °F 27.0 °F 78% 29.93 in 6.0 mi West 27.6 mph 38.0 mph 0.00 in Rain Light Rain
3:53 PM 32.0 °F 19.2 °F 24.1 °F 73% 29.98 in 10.0 mi West 23.0 mph 32.2 mph 0.00 in   Overcast
4:53 PM 32.0 °F 19.8 °F 23.0 °F 69% 30.01 in 10.0 mi West 20.7 mph 29.9 mph N/A   Overcast
5:23 PM 30.2 °F 17.1 °F 21.2 °F 69% 30.02 in 10.0 mi West 21.9 mph 32.2 mph N/A   Overcast
5:53 PM 30.9 °F 18.4 °F 21.9 °F 69% 30.05 in 10.0 mi West 20.7 mph 26.5 mph N/A   Overcast
6:53 PM 30.9 °F 18.1 °F 21.9 °F 69% 30.06 in 10.0 mi West 21.9 mph 28.8 mph N/A   Overcast
7:53 PM 30.9 °F 18.1 °F 21.9 °F 69% 30.08 in 10.0 mi West 21.9 mph 25.3 mph N/A   Overcast
8:53 PM 30.0 °F 17.9 °F 21.9 °F 72% 30.08 in 10.0 mi WSW 18.4 mph 25.3 mph N/A   Overcast
9:53 PM 30.0 °F 18.7 °F 21.9 °F 72% 30.09 in 10.0 mi WSW 16.1 mph - N/A   Overcast
10:53 PM 30.0 °F 17.2 °F 21.9 °F 72% 30.09 in 10.0 mi WSW 20.7 mph 26.5 mph N/A   Overcast
11:53 PM 30.0 °F 17.2 °F 21.9 °F 72% 30.08 in 10.0 mi West 20.7 mph 27.6 mph N/A   Overcast